Location: Saint Louis
(38.6272°N, 90.1978°W)
Time: 22:19:17
(UTC-05:00)

ISS - Pass Details

Date: 10 January 2014
Orbit: 402 x 403 km, 51.6° (Epoch: 29 June)

Event Time Altitude Azimuth Distance (km) Brightness Sun altitude
Exits shadow 06:09:55 24° 288° (WNW) 939 -2.1 -13.2°
Maximum altitude 06:11:13 32° 329° (NNW) 763 -2.3 -12.9°
Drops below altitude 10° 06:14:23 10° 35° (NE) 1,544 -0.2 -12.4°
Sets 06:16:40 0° 46° (NE) 2,421 1.0 -11.9°
